Location: *
(41.7492°S, 135.4150°W)
Time: 03:18:50
(UTC+00:00)

HuskySat-1 - Visible Passes

Search period start: 29 June 2022 00:00
Search period end: 09 July 2022 00:00
Orbit: 415 x 426 km, 51.6° (Epoch: 28 June)

Date Brightness Start Highest point End Pass type
(mag) Time Alt. Az. Time Alt. Az. Time Alt. Az.
30 Jun ? 03:30:47 10° N 03:31:20 12° NNE 03:31:20 12° NNE visible
01 Jul ? 04:18:47 10° NW 04:19:28 15° NW 04:19:28 15° NW visible
02 Jul ? 03:31:43 10° NNW 03:34:28 41° NNE 03:34:28 41° NNE visible
03 Jul ? 02:44:53 10° NNW 02:47:46 26° NE 02:49:23 18° E visible
03 Jul ? 04:21:15 10° W 04:22:22 19° W 04:22:22 19° W visible
04 Jul ? 03:33:44 10° WNW 03:37:05 63° SSW 03:37:11 63° SSW visible
05 Jul ? 02:46:21 10° NW 02:49:44 79° NE 02:51:53 21° ESE visible
05 Jul ? 04:24:05 10° WSW 04:24:52 14° WSW 04:24:52 14° WSW visible
06 Jul ? 03:36:16 10° W 03:39:18 29° SSW 03:39:29 29° SSW visible
07 Jul ? 02:48:30 10° W 02:51:45 41° SSW 02:54:01 17° SE visible
07 Jul ? 04:26:56 10° SW 04:26:59 10° SW 04:26:59 10° SW visible
08 Jul ? 03:39:00 10° WSW 03:41:27 19° SSW 03:41:27 19° SSW visible
